Temp
62 62 62 62 62 62 61 61 61 61 61 62 62 61 61 61 60 58 49 59 63 69 70 71 74 74 74 69 72 71 59 56 60 63 70 82 75 84 87 83 86 93 87 84 84
61 61 61 61 62 61 61 61 61 61 61 61 61 61 61 61 55 52 63 68 68 70 67 64 66 71 64 65 66 62 56 60 68 71 71 78 78 78 80 80 82 81 85 83 83
60 60 60 60 61 60 60 61 61 61 61 61 61 61 60 60 52 59 76 69 70 71 70 70 70 69 60 63 64 63 59 65 70 76 76 72 75 83 78 73 77 76 78 80 78
60 60 60 60 60 60 60 60 60 61 61 61 60 60 60 58 43 69 75 74 71 72 69 67 66 59 58 58 65 58 68 69 72 77 74 70 73 78 77 76 83 81 84 76 76
59 59 59 59 59 59 59 59 60 60 60 60 60 60 57 50 51 71 76 75 72 70 66 63 60 59 56 62 63 62 66 71 74 75 67 73 70 70 75 81 83 83 81 80 73
59 59 59 59 59 58 58 58 58 59 59 60 60 60 52 43 67 73 74 73 71 67 66 64 62 66 61 63 63 65 66 68 72 72 70 66 70 70 73 82 80 80 78 78 76
58 58 58 58 58 58 58 57 57 58 59 60 61 59 50 49 68 72 66 64 72 70 65 69 70 66 67 61 68 67 60 67 69 72 63 67 63 65 73 78 76 77 78 78 78
58 58 58 58 58 58 58 58 57 58 59 60 61 56 45 63 64 62 63 65 72 74 72 73 73 65 63 67 66 62 59 53 66 68 65 65 55 66 72 72 72 75 75 76 75
58 57 57 57 58 58 57 57 58 59 59 60 54 51 45 66 57 63 66 65 72 76 74 78 70 62 64 57 54 57 50 52 58 65 65 61 53 64 71 71 71 71 72 74 75
57 57 57 57 57 57 56 56 57 58 58 61 58 47 54 54 66 67 66 68 69 73 69 67 59 55 56 53 44 50 50 55 56 61 59 57 57 64 69 69 71 69 72 72 72
57 56 56 56 57 56 54 52 48 47 50 48 50 50 60 63 72 69 70 67 68 66 57 60 51 47 53 57 59 58 57 54 59 62 57 55 56 62 69 70 70 67 69 69 71
56 56 56 56 56 56 52 46 49 54 42 55 55 56 60 65 57 65 74 61 60 54 61 54 48 57 62 62 60 59 56 56 59 63 59 56 56 62 65 68 69 67 66 67 69
56 56 56 56 55 52 49 50 62 59 42 50 56 53 55 62 54 57 69 64 59 55 57 51 55 64 62 60 58 57 55 55 54 62 63 56 49 53 59 68 71 71 69 71 69
55 55 55 55 49 54 49 60 60 56 35 44 50 56 60 57 52 68 69 66 62 54 58 55 64 61 60 58 60 53 64 62 59 57 44 54 36 49 55 57 67 68 68 70 69
55 55 55 55 47 45 52 58 60 52 20 54 57 68 62 53 61 63 72 67 58 59 59 54 58 58 57 60 64 58 66 63 62 56 49 50 44 55 59 57 63 65 67 70 70
54 55 54 52 51 52 58 60 56 31 21 47 49 44 54 54 57 65 64 71 69 63 62 60 68 64 62 67 67 68 62 63 59 55 42 51 50 51 58 60 64 66 68 71 73
54 55 53 54 46 56 58 53 32 23 50 38 36 42 42 50 52 60 57 56 53 48 49 57 59 65 69 61 65 63 54 43 39 37 35 52 54 56 64 71 69 67 69 69 74
53 52 52 57 58 56 52 38 25 40 43 52 44 42 37 52 52 55 55 52 59 56 51 47 45 60 68 61 57 57 53 37 33 35 43 53 47 56 71 73 72 73 71 69 69
52 53 53 53 58 54 41 30 32 42 49 46 43 35 37 47 52 52 54 54 57 59 49 49 51 67 69 70 66 57 51 56 46 47 40 47 59 64 71 69 70 70 70 65 65
48 49 51 58 61 49 38 34 39 50 50 49 35 38 32 35 36 50 52 59 57 62 63 55 49 65 68 71 68 61 64 48 42 31 32 46 50 52 61 63 68 67 63 64 66
49 46 54 61 54 44 33 35 43 52 54 43 41 34 35 33 37 45 48 57 61 61 63 57 50 56 66 59 55 58 54 54 46 47 36 33 40 58 61 66 63 64 65 64 66
48 40 57 57 40 37 34 39 44 47 50 47 46 41 36 34 37 47 47 57 65 64 55 58 50 45 54 61 67 61 56 57 43 40 41 39 39 62 63 67 66 66 66 66 67
42 46 56 53 34 35 39 40 44 43 47 49 45 44 42 34 38 49 54 65 66 63 56 56 45 38 45 54 60 60 60 58 54 51 41 37 39 64 66 68 69 65 65 67 67
44 39 46 50 45 38 36 39 40 51 51 53 48 46 40 40 44 41 47 60 67 64 60 58 49 45 42 46 52 53 58 59 54 40 45 43 49 56 56 61 65 66 65 65 66
47 41 45 35 38 39 40 38 36 39 49 51 46 45 43 40 41 41 47 51 65 61 56 54 44 49 54 58 56 57 58 59 53 50 47 47 45 47 52 54 57 64 69 67 67
41 41 44 41 43 39 39 35 35 39 41 46 43 45 45 41 40 40 44 51 53 57 52 54 41 45 44 54 52 54 60 59 58 54 48 48 46 53 54 58 59 62 65 66 65
50 49 45 43 41 37 36 35 36 44 49 49 47 45 41 42 45 45 46 45 45 54 49 48 42 41 36 46 50 43 45 55 56 55 54 45 49 54 56 57 59 59 64 65 65
MSLP
1018.01 1017.67 1017.36 1016.98 1016.67 1016.41 1016.12 1015.94 1015.61 1015.39 1015.13 1014.86 1014.63 1014.62 1014.53 1014.34 1014.00 1013.65 1012.38 1010.30 1009.82 1009.51 1009.72 1009.35 1008.99 1009.02 1008.92 1008.89 1008.47 1008.30 1008.68 1007.95 1007.15 1006.33 1004.58 1003.18 1003.03 1002.49 1002.35 1002.20 1001.43 1000.50 1001.37 1002.75 1003.40
1017.94 1017.60 1017.25 1016.85 1016.43 1016.19 1015.97 1015.67 1015.47 1015.14 1014.87 1014.61 1014.47 1014.24 1014.11 1014.02 1013.70 1011.78 1009.49 1008.47 1008.73 1009.05 1009.58 1009.68 1009.04 1008.94 1009.03 1008.72 1008.46 1007.99 1007.65 1006.80 1006.71 1005.84 1004.89 1004.03 1002.99 1002.54 1003.21 1003.04 1002.46 1003.78 1002.14 1003.16 1003.58
1017.79 1017.37 1017.00 1016.60 1016.27 1015.94 1015.66 1015.41 1015.08 1014.88 1014.58 1014.30 1014.09 1014.05 1013.96 1013.73 1012.39 1008.04 1005.62 1006.85 1007.81 1008.55 1009.11 1009.13 1008.91 1008.67 1008.96 1008.66 1008.14 1007.57 1006.60 1006.86 1006.07 1005.53 1005.11 1004.43 1003.80 1002.82 1003.00 1003.48 1003.88 1005.74 1006.96 1002.76 1003.23
1017.64 1017.27 1016.85 1016.48 1016.11 1015.78 1015.38 1015.13 1014.71 1014.44 1014.22 1014.07 1013.92 1013.82 1013.62 1013.83 1011.04 1006.20 1005.69 1005.76 1006.84 1008.09 1008.72 1008.77 1008.75 1008.40 1008.38 1008.04 1007.88 1007.53 1006.61 1006.51 1005.93 1005.02 1005.10 1004.89 1004.64 1003.75 1003.38 1003.65 1003.86 1005.35 1006.46 1006.52 1004.31
1017.31 1016.94 1016.61 1016.22 1015.89 1015.58 1015.22 1014.80 1014.43 1014.06 1013.79 1013.68 1013.63 1013.57 1013.62 1012.38 1009.42 1006.12 1005.89 1005.99 1006.77 1007.83 1008.16 1008.36 1008.23 1008.15 1007.58 1007.49 1007.65 1006.74 1006.66 1006.26 1005.63 1005.25 1005.25 1004.89 1004.97 1004.95 1003.97 1004.02 1003.62 1004.51 1005.14 1007.15 1006.79
1016.96 1016.53 1016.20 1015.88 1015.55 1015.20 1014.87 1014.50 1014.02 1013.65 1013.44 1013.21 1013.10 1013.22 1013.06 1010.83 1007.52 1006.59 1006.42 1006.88 1006.56 1007.33 1007.57 1008.01 1007.39 1007.19 1006.95 1006.87 1006.60 1006.25 1006.35 1006.02 1005.62 1005.09 1005.18 1005.29 1005.14 1005.66 1004.71 1004.40 1004.23 1005.03 1005.20 1005.89 1006.98
1016.56 1016.19 1015.83 1015.50 1015.16 1014.80 1014.44 1014.07 1013.84 1013.47 1012.99 1012.63 1012.65 1012.68 1011.38 1008.80 1006.88 1005.72 1006.50 1007.29 1006.61 1006.09 1006.76 1006.85 1006.94 1006.89 1006.73 1006.33 1006.02 1006.07 1006.20 1006.00 1005.26 1004.85 1005.40 1005.87 1006.02 1005.43 1005.54 1005.46 1004.58 1004.99 1005.07 1005.52 1006.43
1016.19 1015.74 1015.29 1014.87 1014.48 1014.07 1013.87 1013.52 1013.15 1012.81 1012.40 1012.26 1012.06 1011.90 1009.27 1007.62 1007.48 1006.74 1005.29 1005.65 1005.53 1005.42 1005.64 1006.15 1006.64 1006.75 1006.73 1006.02 1005.61 1005.82 1006.01 1005.67 1004.93 1005.13 1005.35 1006.18 1006.29 1006.00 1005.66 1006.06 1005.21 1005.04 1005.21 1005.44 1006.04
1015.77 1015.29 1014.85 1014.39 1013.96 1013.57 1013.23 1012.79 1012.12 1011.80 1011.59 1011.64 1011.74 1011.29 1007.94 1005.70 1005.73 1003.81 1004.04 1004.72 1003.85 1004.08 1004.84 1005.34 1006.21 1006.71 1006.19 1006.25 1005.94 1005.41 1005.26 1005.08 1005.27 1005.04 1005.58 1005.99 1006.83 1006.52 1005.96 1006.21 1005.82 1005.68 1005.23 1005.44 1005.48
1015.59 1015.12 1014.59 1014.09 1013.65 1013.26 1012.83 1012.10 1010.42 1010.11 1010.55 1010.55 1010.51 1010.39 1007.20 1004.04 1002.99 1002.69 1002.68 1003.75 1003.30 1003.06 1003.93 1004.65 1005.57 1006.01 1005.63 1005.26 1003.93 1004.67 1004.92 1004.86 1005.14 1005.46 1005.87 1006.39 1006.62 1006.49 1006.00 1006.18 1006.05 1005.64 1005.23 1005.27 1005.49
1015.29 1014.81 1014.33 1013.76 1013.19 1012.93 1012.71 1011.91 1009.86 1009.23 1009.67 1008.18 1007.15 1006.09 1002.95 1002.55 1001.62 1001.11 1001.67 1002.74 1002.70 1002.82 1002.84 1003.70 1004.62 1003.65 1004.06 1004.29 1004.45 1004.44 1004.44 1004.26 1004.62 1005.02 1006.15 1006.65 1007.05 1006.44 1005.86 1005.66 1005.81 1005.38 1005.42 1005.16 1005.30
1015.15 1014.40 1013.72 1013.27 1012.63 1012.24 1012.36 1011.80 1009.78 1008.98 1007.71 1006.37 1005.67 1005.12 1003.66 1002.80 1002.30 1000.36 1000.52 1001.68 1001.64 1001.73 1002.29 1003.07 1002.34 1003.59 1003.96 1003.90 1003.99 1003.97 1003.81 1003.88 1004.17 1004.91 1006.21 1006.80 1006.72 1006.79 1006.09 1005.72 1005.38 1005.16 1005.18 1005.34 1005.37
1014.60 1014.08 1013.45 1012.85 1012.00 1011.39 1010.75 1009.85 1008.63 1008.72 1007.69 1004.14 1003.77 1002.71 1002.04 1002.31 1001.41 1000.20 1000.06 1000.21 1000.49 1001.15 1001.07 1001.30 1001.72 1002.83 1002.73 1003.00 1003.10 1003.03 1003.02 1003.28 1003.95 1004.92 1005.64 1006.66 1007.02 1006.90 1006.13 1005.54 1004.94 1004.55 1004.50 1004.66 1004.91
1014.28 1013.67 1013.18 1012.65 1011.85 1010.66 1009.77 1008.49 1008.49 1008.26 1006.79 1002.11 999.75 999.21 999.66 1001.21 1000.06 998.33 999.01 999.02 999.69 999.87 1000.50 1001.10 1001.20 1001.42 1001.48 1001.61 1001.90 1002.01 1002.09 1002.71 1003.53 1004.64 1006.76 1007.21 1006.50 1006.33 1004.52 1004.79 1004.23 1003.79 1003.93 1003.97 1004.42
1013.67 1013.08 1012.67 1012.45 1011.72 1010.93 1009.48 1008.90 1008.22 1008.00 1005.61 998.76 996.96 995.88 996.73 998.66 997.52 996.01 997.37 997.87 997.89 998.67 999.81 999.47 999.92 1000.13 1000.07 1000.03 1000.73 1000.90 1001.57 1002.15 1003.10 1004.38 1006.64 1007.30 1006.87 1003.68 1003.59 1003.64 1002.73 1002.57 1002.70 1003.02 1004.03
1012.83 1012.12 1011.50 1010.98 1010.43 1009.22 1008.46 1008.28 1007.99 1007.66 1003.98 999.64 999.48 999.96 997.69 997.58 996.84 995.74 996.54 997.12 997.69 998.20 998.84 998.80 999.03 999.17 999.07 999.56 999.99 1000.55 1001.32 1002.08 1003.02 1004.72 1005.79 1004.89 1004.82 1002.31 1001.71 1000.95 1001.52 1001.72 1001.93 1002.37 1003.32
1011.89 1010.96 1010.15 1009.92 1008.82 1007.90 1007.96 1008.23 1008.04 1006.08 1002.21 1001.97 1001.91 1001.54 1000.36 998.66 998.11 995.82 995.66 996.03 996.06 997.20 997.58 998.47 998.12 998.18 998.15 998.80 999.33 999.94 1001.00 1002.33 1003.85 1005.48 1005.02 1003.57 1002.87 1000.36 999.23 998.82 999.52 1000.58 1001.30 1002.00 1002.70
1010.99 1009.77 1008.26 1007.90 1007.33 1007.86 1008.22 1008.57 1006.84 1003.77 1002.48 1001.42 1002.27 1001.97 1001.43 998.27 997.62 996.75 996.13 996.14 996.34 996.74 997.18 997.39 997.44 996.84 996.97 997.21 997.98 998.84 1000.16 1001.30 1003.05 1004.04 1002.88 1002.86 1001.11 998.45 998.48 998.01 999.01 1000.17 1000.86 1002.04 1002.99
1010.15 1008.61 1007.70 1006.99 1005.94 1006.93 1008.42 1007.63 1005.59 1003.42 1002.31 1002.13 1002.79 1002.29 1001.45 999.89 997.97 997.20 995.76 995.37 995.58 995.84 996.33 996.37 996.44 996.07 995.98 996.31 997.28 997.97 998.97 1000.58 1002.10 1003.84 1003.33 1001.70 999.80 997.41 997.24 998.20 999.30 1000.22 1000.91 1002.43 1003.13
1010.18 1008.38 1007.31 1006.75 1006.52 1007.24 1007.80 1006.75 1004.84 1002.85 1002.20 1002.17 1002.81 1003.14 1002.96 1001.94 1000.29 997.45 996.01 995.13 995.45 995.64 996.08 996.11 996.17 995.31 995.08 995.66 996.08 996.88 998.30 1000.49 1003.05 1004.99 1004.42 1002.46 1000.41 998.62 997.55 998.24 999.45 1000.66 1001.33 1002.11 1002.69
1009.61 1008.16 1006.77 1006.52 1006.69 1007.13 1007.11 1006.16 1004.34 1002.37 1001.84 1002.33 1002.29 1003.03 1002.95 1002.51 1000.59 997.81 996.53 995.30 995.19 995.41 996.14 996.31 996.30 995.37 994.98 994.90 995.46 996.45 997.80 999.50 1002.15 1004.47 1005.67 1005.16 1002.44 999.94 998.74 998.32 999.85 1001.04 1001.65 1002.39 1003.19
1010.29 1008.56 1006.47 1006.69 1007.42 1007.82 1007.24 1005.95 1004.63 1002.59 1001.94 1001.92 1001.73 1002.66 1002.93 1002.32 1000.60 997.66 996.29 994.36 994.68 994.98 995.93 996.49 996.62 995.86 995.54 995.11 995.27 996.07 997.32 998.85 1001.10 1003.51 1005.73 1006.39 1004.64 1000.95 999.99 999.49 1000.18 1001.00 1001.87 1002.57 1003.30
1010.76 1008.52 1006.79 1007.02 1007.71 1007.29 1006.61 1005.72 1004.16 1002.54 1000.85 1000.39 1001.05 1002.06 1002.49 1002.10 1000.36 998.02 995.90 993.94 993.75 994.78 995.84 996.61 997.21 997.62 996.79 996.71 996.20 996.01 996.75 997.86 999.21 1001.85 1004.74 1005.85 1004.77 1001.46 1001.49 1000.90 1001.20 1001.85 1002.55 1003.22 1003.99
1010.97 1009.17 1007.83 1007.45 1007.89 1007.80 1006.81 1005.31 1003.75 1001.90 1000.51 999.86 1000.62 1001.15 1001.64 1001.23 1000.48 998.93 996.83 994.57 993.64 994.93 996.03 996.10 997.04 998.03 997.80 997.55 996.84 996.59 996.78 997.24 998.66 1000.85 1003.40 1005.26 1004.77 1004.32 1003.93 1003.46 1002.72 1002.80 1003.00 1003.64 1004.58
1010.86 1010.30 1010.32 1009.10 1008.15 1007.94 1007.25 1006.35 1004.88 1003.12 1001.36 1000.41 1000.48 1000.56 1000.72 1000.69 1000.07 999.53 998.25 996.12 994.50 995.43 996.49 996.98 998.17 998.80 998.77 998.19 997.69 997.00 997.18 997.72 998.68 999.98 1001.44 1004.30 1004.79 1005.64 1005.18 1004.81 1004.54 1004.29 1003.92 1004.53 1005.42
1012.24 1011.60 1010.59 1009.87 1009.02 1008.20 1007.55 1006.91 1005.94 1004.30 1002.98 1001.23 1001.25 1001.19 1000.94 1001.07 1001.33 1000.62 999.91 997.86 996.41 996.46 997.39 997.98 999.96 1000.43 1000.73 999.74 999.47 998.76 998.07 998.70 999.06 1000.71 1002.31 1003.49 1005.20 1005.51 1005.98 1005.12 1005.21 1005.79 1006.03 1005.73 1006.12
1012.71 1011.97 1011.19 1009.85 1009.12 1008.57 1008.02 1007.32 1006.16 1004.46 1003.05 1002.30 1001.76 1001.28 1001.39 1001.48 1001.47 1001.02 1000.61 999.48 999.21 997.57 998.58 999.67 1001.19 1002.20 1003.00 1002.18 1001.07 1000.88 1000.86 999.97 1000.10 1000.87 1001.78 1003.25 1004.27 1005.01 1005.40 1005.94 1006.32 1006.32 1006.18 1006.70 1006.81
Wind_Speed
15 14 13 13 11 11 10 11 13 13 13 13 12 12 12 14 14 13 16 14 12 22 17 11 9 10 10 7 7 5 8 12 15 16 16 15 4 4 9 10 11 7 13 12 13
15 15 15 16 13 12 12 10 12 13 14 14 13 12 11 11 14 21 22 27 27 21 6 9 7 13 7 8 7 7 8 17 9 12 13 14 5 6 5 11 10 20 19 17 14
15 15 15 16 16 14 13 14 12 14 14 14 12 11 12 9 8 10 7 36 27 18 10 9 12 8 11 8 10 9 17 8 11 20 8 8 6 5 7 6 5 8 19 20 21
16 16 15 15 16 15 15 16 15 15 13 14 13 12 9 6 7 4 7 8 30 17 11 7 14 10 10 17 13 12 17 13 15 17 7 5 10 9 4 3 10 11 13 3 19
16 16 17 16 16 16 15 16 16 16 14 12 12 12 7 10 16 14 18 3 19 18 17 15 12 11 16 14 12 18 14 15 19 18 2 4 6 7 10 7 10 13 17 9 12
16 17 17 17 17 15 15 16 16 15 15 14 12 10 7 21 15 22 22 9 15 20 18 15 8 11 8 13 18 7 12 13 17 20 4 2 6 7 13 10 7 9 12 12 6
17 17 17 17 17 17 15 15 16 18 19 17 15 11 16 24 9 13 22 11 8 20 18 20 18 9 13 10 12 11 10 14 19 20 3 5 6 7 15 13 14 8 10 11 13
19 19 19 19 19 18 17 17 19 21 22 20 17 12 19 19 22 30 31 23 17 21 22 16 16 13 16 8 9 15 9 14 19 13 4 9 15 11 18 15 11 8 7 11 11
20 19 20 22 21 20 17 20 26 26 24 20 14 9 15 10 18 33 22 17 13 18 21 16 14 15 15 13 11 13 17 17 12 9 6 8 4 12 18 17 15 8 9 9 13
21 19 18 18 18 17 18 22 30 26 11 12 12 9 12 17 15 12 18 21 14 16 19 13 7 12 14 12 19 13 12 14 17 10 4 6 8 11 18 20 20 8 11 10 11
23 20 19 19 19 18 15 9 9 4 5 10 14 17 21 24 23 15 13 19 21 13 16 13 12 21 20 17 9 8 15 13 9 6 6 10 8 10 17 17 20 8 9 9 11
23 22 21 20 20 20 10 6 13 6 14 19 29 27 32 20 17 21 20 16 18 19 15 10 22 15 15 16 16 19 16 19 7 10 11 10 16 16 17 15 21 12 9 9 8
22 22 21 21 22 15 12 17 13 7 10 19 26 31 31 20 27 29 17 23 23 21 22 21 13 19 21 20 21 23 21 13 8 11 18 7 8 8 15 25 22 16 10 13 9
23 23 22 21 14 6 11 12 15 4 7 12 18 23 29 22 15 30 23 24 15 26 23 17 14 24 21 24 22 23 21 16 16 13 11 8 6 7 14 24 24 17 14 13 8
24 24 21 15 10 13 17 18 16 3 8 10 8 11 11 28 6 19 25 26 23 21 21 18 21 24 24 21 24 20 13 12 14 8 6 20 10 15 22 25 23 17 13 13 11
26 26 24 12 9 14 16 13 9 3 11 7 11 22 9 30 14 14 19 22 20 20 22 16 14 20 15 19 20 16 15 18 7 13 13 20 19 17 14 28 20 13 14 16 17
29 29 25 11 8 5 10 5 4 6 10 6 11 15 22 17 25 13 24 28 24 21 16 25 23 23 17 18 18 18 12 9 5 2 14 12 17 15 11 24 25 21 16 12 16
30 33 10 9 6 12 5 3 8 10 14 10 17 16 9 11 29 18 18 21 23 18 12 19 19 24 22 10 22 20 14 7 9 11 16 16 14 22 21 14 16 18 15 10 10
30 6 2 8 13 6 3 4 5 7 10 11 17 5 8 7 11 21 24 22 25 22 9 14 16 23 24 12 21 19 15 9 3 6 1 5 8 1 12 14 15 18 13 10 9
9 5 2 3 6 6 2 6 12 18 21 19 7 2 7 13 12 15 21 22 24 23 12 4 12 16 23 21 16 15 9 8 4 3 5 6 4 4 12 17 17 16 14 11 10
4 6 2 6 3 2 4 7 15 17 16 5 4 1 3 3 11 9 14 10 22 21 17 5 4 12 18 13 10 11 9 4 10 8 1 3 9 4 4 23 16 14 11 10 13
5 5 1 5 2 1 3 5 8 17 15 14 5 9 6 6 8 11 17 11 23 20 23 9 3 1 5 3 10 9 9 13 8 8 7 3 9 10 6 19 18 14 10 9 10
6 5 4 2 4 5 5 10 11 10 12 6 5 5 3 5 6 10 22 18 28 20 10 7 5 4 1 10 9 16 8 8 7 9 5 5 6 6 12 12 15 13 11 11 11
4 4 4 2 2 7 8 7 16 14 12 6 5 5 5 7 3 1 3 7 24 15 10 7 3 6 10 5 6 5 6 6 7 6 14 11 13 10 8 6 12 12 12 11 15
3 4 3 7 9 15 10 8 15 11 9 9 2 4 5 2 3 2 2 10 19 14 5 4 5 4 3 4 8 6 6 6 5 4 6 12 12 5 5 10 10 7 9 13 12
5 4 4 9 12 13 6 6 8 11 5 8 7 10 7 5 3 1 3 7 5 6 6 4 4 5 5 10 13 7 8 10 15 17 11 13 11 8 2 13 11 12 5 5 13
3 6 4 7 10 9 12 8 8 15 8 9 12 4 9 7 7 9 10 13 7 8 5 6 5 3 4 9 6 5 10 5 10 13 15 9 8 11 13 14 8 3 3 6 14
Wind_Direction
337 334 324 314 318 314 308 315 311 310 308 303 299 299 301 308 302 269 246 224 204 239 274 328 196 228 237 253 270 264 236 238 240 248 259 281 346 44 347 336 349 317 126 98 88
334 332 330 327 317 315 312 307 308 304 303 302 303 305 299 311 291 264 239 222 232 250 216 238 237 198 220 208 241 204 233 233 244 262 265 299 279 245 8 14 311 3 91 107 97
331 330 330 328 329 322 315 308 300 302 301 297 297 303 310 317 287 249 269 218 211 220 231 217 251 212 206 228 226 245 235 247 227 255 277 340 317 224 115 322 352 13 309 141 129
328 326 324 322 322 320 318 310 306 303 301 303 303 302 306 301 253 150 51 185 206 193 204 255 232 239 198 213 221 239 242 242 260 265 262 337 322 295 189 196 337 9 13 223 158
317 316 316 315 316 314 310 306 300 299 294 290 293 293 298 231 240 276 296 129 173 181 203 216 225 221 223 204 224 231 233 241 255 265 306 14 318 319 284 63 335 356 344 27 174
306 306 307 307 307 310 306 304 298 293 290 283 274 275 246 253 265 264 265 188 171 189 202 216 228 227 228 227 210 224 237 240 250 256 36 166 302 16 307 335 321 328 326 353 219
302 297 297 298 300 299 300 300 301 298 290 281 274 264 248 240 260 290 306 282 249 185 199 212 228 235 232 226 237 220 230 240 248 251 135 65 306 263 298 300 288 299 317 327 347
313 306 299 294 292 290 293 295 290 288 282 279 274 264 260 254 247 265 266 275 260 198 196 203 224 249 257 254 233 232 232 233 235 236 164 126 259 279 287 294 276 275 302 304 314
319 313 308 303 294 290 295 291 288 285 275 270 265 235 270 252 223 235 233 237 247 200 194 197 196 229 259 246 235 226 225 231 230 189 167 148 204 255 267 284 285 303 281 285 297
323 324 323 321 316 302 291 296 286 276 259 240 233 248 247 239 232 228 213 228 227 215 185 187 190 218 237 220 215 214 221 220 224 197 113 258 236 238 257 258 275 259 263 269 282
325 320 316 312 308 305 305 317 316 143 200 226 197 232 287 221 282 221 184 199 232 235 185 177 196 209 218 228 236 245 237 220 211 168 169 237 256 251 257 265 255 257 241 259 271
324 319 314 310 303 297 290 253 236 309 287 233 239 231 252 270 290 288 182 187 209 214 192 182 214 214 211 221 227 244 242 236 187 180 184 212 234 242 260 252 261 242 226 251 268
317 316 317 314 311 295 236 237 259 300 273 262 234 235 235 226 241 254 209 189 195 204 212 202 197 213 205 215 216 235 241 216 185 192 206 196 263 270 273 249 241 231 224 229 231
314 312 312 315 305 324 298 291 326 92 281 259 227 241 228 218 266 229 241 182 191 206 212 204 206 206 214 214 214 228 233 200 207 221 234 191 256 233 251 253 237 216 211 221 221
314 310 307 303 286 274 274 290 284 290 290 283 206 198 193 183 209 220 206 190 197 185 210 194 200 202 215 208 217 231 234 221 200 224 170 222 244 235 219 228 221 209 205 211 213
312 308 302 287 246 252 262 265 287 236 250 299 49 336 182 190 225 175 194 198 208 197 201 208 206 207 215 219 214 222 227 227 165 227 232 226 204 244 229 213 213 201 207 208 219
314 309 302 275 246 275 254 253 239 222 310 65 2 347 330 191 220 191 191 182 193 195 192 209 202 220 200 209 217 214 209 222 187 100 234 269 218 232 225 217 196 192 199 197 199
318 310 268 245 260 230 256 187 216 247 249 348 342 325 293 185 212 227 194 183 202 202 191 192 213 210 216 187 210 222 205 158 163 195 235 241 237 234 233 209 174 177 180 170 186
323 298 325 268 301 133 80 207 263 303 304 333 327 320 335 313 247 207 206 191 199 201 197 187 206 217 217 187 196 221 222 190 146 356 232 216 231 28 204 158 166 178 179 137 158
316 279 267 339 18 114 165 253 260 266 309 311 293 304 5 313 319 196 194 194 199 210 220 280 196 210 213 186 202 205 177 179 31 67 319 305 188 146 136 158 160 145 139 134 115
283 316 205 65 41 179 249 250 297 289 286 319 347 199 268 286 271 258 195 189 200 204 215 202 199 217 195 195 181 200 203 139 119 159 272 352 290 324 227 155 134 125 124 121 114
309 315 157 78 5 339 277 264 299 290 296 282 178 189 221 223 262 235 177 207 193 206 207 200 317 211 215 17 185 198 185 192 159 168 122 144 279 318 39 126 125 118 116 112 117
303 277 65 80 356 312 270 289 268 272 276 264 176 141 130 245 254 196 204 210 184 190 179 187 186 71 283 289 283 212 217 190 173 106 131 180 247 306 48 98 125 122 101 98 96
293 318 346 295 328 319 307 315 338 316 29 11 126 167 177 217 214 296 298 282 184 174 102 90 98 152 189 223 194 165 229 185 158 116 160 176 190 145 58 111 82 100 102 93 85
326 3 30 311 327 324 341 316 334 342 332 2 109 344 296 118 29 6 343 289 179 123 83 86 83 16 173 15 342 188 221 249 192 82 105 143 106 85 71 58 55 359 94 101 93
352 331 304 295 312 327 348 330 318 327 302 21 24 353 347 59 44 169 348 254 126 108 83 37 31 48 12 24 19 333 189 59 93 94 77 96 95 100 214 68 55 72 14 121 118
331 283 284 303 329 345 341 332 308 328 16 11 2 45 8 335 293 266 267 296 267 138 101 80 112 75 38 358 351 9 349 350 96 100 129 131 149 159 134 132 140 131 14 107 100